OBJECT AA, 47437

Orbit data source: Space-Track

You're viewing an Uncataloged Satellite

Recently launched and/or uncataloged satellites may have evolving metadata. Metadata may include but not limited to: Owner, Maufacturer, Bus, Motor, and Mission.

OBJECT AA, 47437 is a satellite in SSO that was launched on Sun, 24 Jan 2021 UTC launched from the Air Force Eastern Test Range (AFETR). Unknown objects in Earth's orbit typically refer to objects detected orbiting the Earth but have not yet been identified or cataloged. These objects could be anything from previously untracked satellites, spent rocket stages, debris from satellite collisions, or even natural meteoroids temporarily captured by Earth's gravity.

Loading next visibility...
Identifier
47437, 2021-006AA
Orbit
SSO
Country
Flag of TBDTBD
Related business
Manufacturer
SpaceX/Seattle
Mission
Spacecraft
Bus & Motor
Unknown
Mass
~100 kg wet, ~100 kg dry
Launch date (UTC)
2021-01-24 (5 years ago)
Launch vehicle
Unknown
Launch site
Air Force Eastern Test Range (AFETR)
Object type
Unknown
Shape & HBR
Cyl, Unknown HBR
Radar Cross Section
0.110 m², Medium (>0.1 m² and < 1m²)

Expand to show TLE details & history
Last TLE update: 8 hours ago

TLE from 8 hours ago
0 OBJECT AA
1 47437U 21006AA  26036.84008458  .00010274  00000-0  36049-3 0  9997
2 47437  97.2437  81.1614 0007734 320.4067  39.6608 15.29584804279234
Epoch: 2026-02-05T20:09Z
TLE epoch observation values (Epoch: 2026-02-05T20:09:43.307Z)
Latitude
-0.00005°
Longitude
2.74442°
Altitude
476.08 km
Speed
7.63 km/s
True Right ascension
05h 24m 38s
True Declination
0° 00' 00"
Sunlit
Object was in full shadow at epoch
Visualization orbit readout
Latitude
Unknown
Longitude
Unknown
Altitude
Unknown
Speed
Unknown
Apparent Right ascension
Unknown
Apparent Declination
Unknown
Sunlit
N/A
Visualization observer readout
Local Sidereal Time
06:06:45
Azimuth
Unknown
Elevation
Unknown
Doppler factor
Unknown
Orbital elements
Apogee altitude
479.298 km
Perigee altitude
468.699 km
Semi-major axis
6,852.136 km
Eccentricity
0.00077
Inclination
97.2437°
RAAN
81.1614°
Arg. of periapsis
320.4067°
True anomaly
39.71741°
Mean anomaly
39.6608°
Eccentric anomaly
39.6891°
Mean motion
3.82652 °/min
Orbital period
94.08 mins
BSTAR
0.00036049
Loading maneuver chart data...
Computing Atmospheric mass density...

Documentation

Showing up to 5 results
|